Location: Leeds
(37.2390°N, 113.3580°W)
Time: 21:29:26
(UTC-06:00)

Daily predictions for brighter satellites

Satellite Brightness Start Highest point End
(mag) Time Altitude Azimuth Time Altitude Azimuth Time Altitude Azimuth
Cosmos 1954 Rocket 4.0 21:21:42 10° S 21:26:52 72° ESE 21:32:03 10° NNE
ATLAS 5 CENTAUR R/B 2.2 21:24:03 10° S 21:28:15 37° ESE 21:32:44 10° NE
Cosmos 1980 3.8 21:22:56 10° NNW 21:28:40 79° ENE 21:34:20 10° SSE
Meteor 2-5 Rocket 4.1 21:23:27 10° SSW 21:29:16 75° W 21:35:01 10° N
YAOGAN 6 3.6 21:26:15 10° SE 21:29:27 30° ENE 21:32:41 10° N
Cosmos 2084 4.3 21:26:07 10° S 21:29:30 26° ESE 21:32:47 10° ENE
CZ-4B DEB 3.7 21:27:30 10° SE 21:30:07 29° ENE 21:32:45 10° NNE
Cosmos 1934 Rocket 4.0 21:24:27 10° N 21:30:38 89° W 21:36:43 10° S
Lacrosse 5 4.2 21:29:12 10° N 21:31:39 13° NNE 21:34:06 10° NE
Cosmos 614 Rocket 4.1 21:28:43 10° S 21:33:47 55° ESE 21:38:51 10° NNE
Helios 1A 3.1 21:30:04 10° SSE 21:34:07 58° ENE 21:38:12 10° N
Helios 1B rocket 2.5 21:30:52 10° NNE 21:34:58 60° E 21:39:03 10° S
Cosmos 2237 Rocket 2.2 21:33:23 10° NNW 21:39:02 88° ENE 21:44:40 10° SSE
Cosmos 1842 Rocket 3.5 21:35:24 10° N 21:39:48 72° E 21:44:07 10° SSE
Cosmos 1605 Rocket 4.0 21:34:52 10° N 21:41:09 77° E 21:47:29 10° S
H-2A R/B 4.0 21:42:16 10° E 21:45:19 16° ENE 21:48:24 10° NNE
Meteor 2-15 Rocket 4.4 21:40:24 10° S 21:46:24 68° E 21:52:25 10° NNE
ERS-1 Rocket 3.7 21:41:49 10° SE 21:46:26 38° ENE 21:51:03 10° N
Atlas Centaur 2 2.1 21:43:38 10° WSW 21:46:46 27° S 21:49:18 13° SE
USA 234 3.5 21:42:19 10° NE 21:48:35 47° SE 21:54:49 10° SSW
Lacrosse 4 Rocket 3.3 21:45:06 10° SW 21:49:00 35° WNW 21:52:59 10° N
Cosmos 1674 3.7 21:47:29 10° SSE 21:50:38 27° E 21:53:51 10° NNE
Cosmos 2227 Rocket 3.2 21:46:03 10° SW 21:51:32 51° WNW 21:57:02 10° NNE
Cosmos 1184 Rocket 2.8 21:48:47 10° S 21:52:07 85° ESE 21:55:30 10° N
Cosmos 1818 4.4 21:47:27 10° NNW 21:52:29 37° NE 21:56:55 13° ESE
Cosmos 1908 4.5 21:49:34 10° NNE 21:52:50 25° ENE 21:55:15 14° SE
Meteor 1-24 Rocket 4.1 21:48:29 10° SSW 21:54:25 75° W 22:00:13 10° N
Cosmos 1741 Rocket 4.1 21:50:48 10° S 21:56:00 59° ESE 22:01:13 10° NNE
Cosmos 1727 Rocket 4.1 21:51:07 10° S 21:57:25 89° W 22:03:48 10° N
SL-16 R/B 2.4 21:56:57 10° NNW 22:02:33 57° ENE 22:07:03 16° SE
Tiangong 1 2.4 22:01:00 10° W 22:03:37 35° NNW 22:06:14 10° NE
In-Cosmos 22 4.4 21:59:12 10° S 22:04:52 83° W 22:10:40 10° N
ARGOS 3.9 22:01:49 15° SE 22:05:49 37° ENE 22:10:45 10° N
Cosmos 1356 Rocket 3.8 22:03:32 12° SSE 22:07:16 44° E 22:11:21 10° NNE
MetOp-A 4.5 22:03:41 15° SE 22:07:58 50° ENE 22:13:08 10° N
Cosmos 1076 Rocket 3.8 22:04:14 11° SSE 22:08:18 49° E 22:12:31 10° NNE
SAR-Lupe-4 3.8 22:07:14 11° S 22:10:41 66° WSW 22:14:15 10° NNW
NOSS 3-4 (A) 4.0 22:07:40 10° NW 22:14:48 77° WSW 22:21:11 15° SSE
NOSS 3-4 (C) 4.0 22:07:46 10° NW 22:14:54 78° WSW 22:21:15 16° SSE
Terra 3.9 22:15:15 10° E 22:17:24 13° ENE 22:19:38 10° NE
Meteor 1-29 4.4 22:16:21 10° N 22:19:34 38° WNW 22:22:47 10° SW
Okean 3 Rocket 3.6 22:15:29 10° S 22:19:59 84° W 22:24:30 10° N
Cosmos 2219 Rocket 4.4 22:16:10 10° NW 22:20:17 21° W 22:24:22 10° SSW
Cosmos 2221 2.5 22:17:51 10° N 22:22:16 88° E 22:25:34 17° S
Cosmos 2333 Rocket 4.1 22:18:25 10° NW 22:22:55 25° WSW 22:27:23 10° SSW
Cosmos 2016 Rocket 4.3 22:22:26 10° N 22:28:28 48° E 22:32:10 23° SE
Cosmos 2208 Rocket 4.0 22:26:18 10° NNW 22:31:39 75° ENE 22:34:57 24° SSE
NOAA 11 4.2 22:27:58 17° SSE 22:32:10 87° WSW 22:37:38 10° NNW
RESURS DK-1 3.9 22:30:19 10° N 22:33:44 24° ENE 22:35:16 19° E
Cosmos 2227 4.2 22:28:55 10° S 22:34:33 61° ESE 22:40:11 10° NNE
Cosmos 1242 Rocket 2.5 22:31:17 10° N 22:35:01 80° E 22:36:40 31° SSE
SL-08 RB Rocket 3.9 22:34:11 27° SE 22:36:25 54° ENE 22:40:53 10° N
YAOGAN 11 4.2 22:35:53 28° SSE 22:38:11 67° ENE 22:42:42 10° N
Cosmos 1766 Rocket 3.4 22:35:45 22° S 22:38:29 73° E 22:42:49 10° NNE
SPOT 1/Viking Rocket 3.9 22:37:13 26° SE 22:39:47 49° ENE 22:44:44 10° N
USA 245 2.9 22:40:57 44° SE 22:41:49 68° ENE 22:45:37 10° N
Cosmos 1570 Rocket 4.1 22:40:47 10° NNW 22:46:04 73° WSW 22:49:10 25° S
Meteor 1-21 Rocket 4.4 22:40:54 10° SSW 22:46:36 73° W 22:52:13 10° N
SL-14 R/B 3.8 22:46:09 37° ESE 22:46:50 41° E 22:50:33 10° NNE
Cosmos 1328 Rocket 4.2 22:44:53 10° N 22:48:57 38° E 22:49:54 33° ESE
Cosmos 2228 Rocket 3.9 22:46:34 10° N 22:50:51 38° ENE 22:51:58 33° ESE
Cosmos 1328 4.1 22:51:25 42° SE 22:52:07 47° E 22:56:01 10° NNE
Cosmos 1743 Rocket 3.8 22:54:02 40° SE 22:54:55 47° E 22:59:05 10° NNE
H-2A R/B 3.5 22:54:27 21° E 22:55:16 22° ENE 22:58:36 10° NNE
EO 1 Delta rocket 3.8 22:54:27 35° SSE 22:56:23 67° ENE 23:00:58 10° N
Cosmos 1867 4.4 22:52:35 10° SW 22:57:51 51° NW 23:03:11 10° NNE
Cosmos 1626 4.1 23:00:20 17° ENE 23:00:20 17° ENE 23:02:03 10° NE
Cosmos 1300 2.9 22:55:54 10° N 22:59:38 50° E 23:00:02 47° ESE
Delta 2 Rocket 4.5 22:55:24 10° SW 23:00:47 41° SSE 23:02:11 35° SE
Cosmos 1151 Rocket 4.1 22:57:27 10° NNE 23:01:16 29° ENE 23:01:42 28° E
Cosmos 2263 Rocket 2.7 23:03:21 34° ESE 23:03:59 35° ESE 23:09:00 10° NE
Cosmos 1726 1.9 23:03:57 10° N 23:07:38 89° E 23:08:04 68° S
SPOT 5 3.3 23:07:35 30° SSW 23:09:47 58° W 23:14:44 10° NNW
IGS 5A 4.1 23:10:27 38° E 23:10:51 39° ENE 23:14:46 10° N
Cosmos 2061 Rocket 4.5 23:05:08 10° NNW 23:11:22 58° W 23:15:41 21° SSW
ATLAS 5 CENTAUR R/B 4.1 23:09:08 10° WSW 23:13:01 25° NW 23:17:09 10° N
OAO 1 Rocket 4.3 23:09:18 10° WSW 23:14:37 69° S 23:16:37 38° ESE
Lacrosse 5 2.3 23:10:44 10° NNW 23:15:41 52° NE 23:17:19 37° E
Meteor 2-10 4.2 23:11:07 10° N 23:16:45 76° E 23:18:41 43° SSE
Cosmos 2123 Rocket 4.0 23:15:14 25° SSW 23:19:04 78° W 23:25:18 10° N
Abrixas rocket 4.4 23:16:41 10° NNW 23:19:11 20° NNE 23:20:11 17° NE
Cosmos 468 Rocket 3.9 23:15:18 10° NNW 23:20:26 82° WSW 23:21:53 48° S
Cosmos 371 Rocket 3.3 23:17:22 10° NNW 23:22:11 67° ENE 23:23:02 55° ESE
H-2A R/B 2.3 23:22:03 37° S 23:24:06 65° W 23:29:29 10° NNW
Cosmos 1603 3.7 23:23:57 10° NNW 23:29:36 77° WSW 23:31:12 48° S
USA 234 4.2 23:25:19 10° NE 23:31:32 48° NW 23:37:45 10° WSW
Cosmos 1455 3.8 23:30:16 10° NNE 23:32:48 24° ENE 23:32:48 24° ENE
Tiangong 1 3.3 23:37:15 10° NW 23:39:04 23° NNW 23:39:04 23° NNW
Landsat 7 4.1 23:38:42 50° SSW 23:39:38 60° W 23:44:21 10° NNW
deb Chang Zheng 4 3.5 23:40:04 10° NNE 23:44:23 80° E 23:44:23 80° E
Cosmos 1725 Rocket 4.4 23:38:38 10° NNW 23:44:45 58° W 23:47:15 35° SSW
SL-16 R/B 4.3 23:42:33 10° WNW 23:46:06 17° W 23:48:57 12° SW
Cosmos 1943 3.2 23:41:09 10° NNW 23:46:48 73° ENE 23:47:48 59° SE
Cosmos 1703 3.6 23:51:37 64° N 23:51:37 64° N 23:55:01 10° N
Cosmos 1356 4.5 23:51:47 45° NW 23:51:47 45° NW 23:54:31 10° N
Cosmos 2058 3.0 23:51:16 70° WNW 23:51:16 70° WNW 23:55:24 10° N
CZ-4C R/B 3.8 23:54:51 19° ENE 23:54:51 19° ENE 23:57:11 10° ENE
CZ-4B R/B 3.4 23:47:32 10° NNE 23:52:48 69° ESE 23:53:06 67° SE
CZ-4 R/B 3.7 23:48:25 10° NNE 23:53:18 87° ESE 23:53:35 80° S
Terra 2.0 23:54:08 58° SW 23:54:34 61° WSW 23:59:19 10° NNW
